Theta_e
303 310 306 303 303 303 303 304 304 305 304 303 303 302 302 303 301 301 300 299 298 298 297 296 295 294 294 293 293 294 295 296 298 299 301 302 303 303 304 306 303 302 304 309
307 310 303 303 303 303 303 304 304 304 303 302 302 302 302 302 301 300 299 299 298 297 296 295 293 293 293 292 292 293 294 295 296 298 301 302 302 305 306 306 305 303 303 306
304 305 302 302 303 303 303 303 301 301 302 302 302 302 303 302 301 300 299 298 297 296 294 293 292 292 292 292 292 293 294 294 295 297 299 302 302 303 306 308 309 307 305 306
304 302 302 303 303 302 301 303 302 301 297 299 301 299 302 302 302 300 299 298 297 295 293 292 292 291 291 291 292 292 294 295 296 297 299 301 303 304 304 306 306 305 305 309
305 302 303 303 303 302 302 301 301 302 297 298 302 298 302 301 301 298 297 297 296 294 292 291 290 290 289 290 290 292 293 295 297 299 301 301 303 303 306 307 308 309 309 310
302 300 299 302 301 301 302 301 301 301 297 301 296 296 299 301 299 296 297 296 295 293 291 290 289 289 288 289 290 290 292 295 298 300 303 303 302 304 306 307 308 310 311 310
304 302 299 298 302 302 300 297 298 298 300 300 293 298 298 299 297 296 295 295 293 292 290 289 288 288 288 288 289 290 291 294 297 300 302 303 302 305 306 308 309 310 310 309
299 299 299 299 301 300 300 297 296 296 298 300 294 296 300 297 298 296 295 294 292 291 289 288 288 287 287 287 288 289 291 293 295 299 301 305 305 306 307 306 308 308 308 308
300 301 298 298 299 299 300 299 298 294 293 297 296 299 299 297 292 294 294 293 291 290 289 288 287 286 286 287 288 289 290 292 294 298 300 302 306 306 306 307 307 309 309 307
298 296 298 298 299 298 298 297 295 294 296 296 296 295 298 290 289 291 292 292 291 290 289 287 286 286 286 286 287 288 290 292 294 296 298 300 301 302 302 303 303 303 305 307
297 294 297 297 294 298 297 296 294 294 297 300 297 296 292 289 288 289 290 292 291 290 289 287 286 285 285 285 286 287 288 291 294 295 297 298 299 300 301 301 302 301 304 306
298 299 294 297 301 298 299 297 298 293 293 298 300 299 293 289 288 293 293 292 291 290 289 288 286 285 284 284 285 285 287 290 294 295 295 296 297 298 301 303 304 303 304 307
297 295 293 299 297 296 295 298 299 296 297 294 296 296 290 292 290 293 293 293 291 290 289 288 287 285 284 284 284 284 285 289 290 293 295 296 296 297 298 300 301 301 303 305
297 298 293 295 294 292 294 297 298 296 291 294 297 298 298 292 289 291 293 292 292 288 287 288 287 286 286 285 285 285 286 287 288 290 292 295 297 298 299 301 301 302 302 301
296 291 296 296 295 295 295 294 294 294 296 292 295 291 296 295 294 293 294 292 290 288 286 286 287 286 286 286 286 285 285 286 288 289 291 293 296 298 300 301 302 302 302 302
295 290 289 289 293 294 293 294 294 293 292 291 294 295 295 295 295 294 292 292 288 287 286 285 284 287 287 286 285 285 285 285 286 288 289 291 293 294 297 298 301 302 301 303
292 291 287 291 292 290 290 289 290 291 290 289 290 292 286 286 285 292 292 291 287 287 285 284 284 284 288 287 286 286 285 285 286 286 287 288 289 291 292 294 296 296 297 299
288 289 288 287 288 292 293 296 293 291 293 293 292 290 288 288 291 291 291 291 287 286 285 284 284 285 287 288 288 287 287 287 286 286 286 287 288 289 290 291 292 293 294 296
292 291 288 286 286 293 296 294 293 293 294 295 295 293 294 293 291 291 292 289 287 287 286 285 284 284 284 289 291 289 289 288 287 286 286 286 287 288 290 290 291 292 292 292
292 292 290 285 285 289 297 294 295 295 293 297 297 296 293 291 289 289 292 288 287 287 287 285 285 285 285 285 289 290 290 288 289 288 288 289 289 289 291 291 291 291 291 290
290 291 291 292 286 291 294 294 294 291 294 295 296 296 293 290 291 292 289 288 288 287 287 286 285 286 286 285 285 288 289 289 287 287 287 289 290 290 290 293 292 290 289 288
291 291 290 291 289 293 294 292 294 295 293 294 294 293 292 292 291 290 289 289 288 288 287 287 286 286 287 286 285 285 287 288 288 288 288 288 287 287 288 288 287 287 288 289
289 293 292 293 293 294 294 294 295 295 294 294 294 293 292 291 291 290 290 289 289 289 288 287 287 286 286 287 286 286 285 286 287 288 288 289 289 290 290 290 289 289 289 289
287 291 289 288 292 292 292 294 293 294 295 295 294 293 291 291 291 290 290 289 289 289 288 288 287 286 287 287 287 287 286 286 286 287 287 287 288 288 288 288 288 288 288 288
291 288 289 291 291 292 293 293 295 294 293 293 294 293 292 291 291 290 290 290 289 288 288 289 288 287 288 288 288 288 287 287 287 286 286 287 287 287 287 287 287 287 286 286
287 292 291 296 297 295 296 297 296 295 294 293 292 293 292 291 291 290 290 290 290 290 289 289 289 287 289 288 288 288 288 288 287 287 286 286 287 287 286 286 286 285 285 285
Wind_Speed
4 1 2 5 4 3 6 8 10 13 11 8 9 19 21 8 4 4 4 9 15 20 27 32 33 34 36 31 31 29 29 28 26 26 26 26 26 28 29 31 31 32 34 32
2 1 6 2 4 6 7 9 8 10 11 13 13 18 17 10 6 3 4 10 19 27 31 31 30 29 31 34 32 31 31 32 33 29 22 26 26 23 25 28 29 27 29 31
0 4 2 0 3 5 6 5 5 11 15 8 7 8 5 5 6 6 6 15 24 29 32 32 30 29 30 34 33 29 30 31 30 29 27 24 28 29 27 23 24 26 25 26
3 4 1 4 3 4 4 8 12 13 5 3 6 4 7 9 7 7 8 21 28 29 30 29 29 29 29 29 30 30 32 29 28 27 27 25 28 25 30 26 26 25 19 23
1 3 2 1 1 3 8 12 15 7 2 4 2 1 4 7 3 5 12 26 27 28 30 32 31 31 31 30 30 28 31 27 24 21 25 25 27 28 20 22 20 21 22 25
4 1 2 4 7 3 9 7 10 3 2 3 2 3 5 2 2 8 17 25 27 32 31 32 32 33 35 32 30 29 27 25 18 18 14 17 26 20 22 24 22 19 20 21
2 1 2 2 4 4 7 6 4 5 2 5 5 3 9 4 3 9 17 27 29 32 32 33 33 33 32 30 30 26 25 23 16 15 7 14 15 16 19 18 17 20 20 20
2 5 3 1 2 1 3 2 3 4 4 7 5 5 6 6 9 15 18 22 27 30 31 32 32 32 29 27 26 26 23 21 16 11 8 6 13 15 17 15 15 14 16 17
1 4 3 1 2 4 2 1 2 2 2 2 5 7 3 3 4 13 19 20 25 28 31 31 32 31 26 24 24 23 19 18 15 9 11 6 14 11 11 18 15 13 17 19
2 4 1 1 2 5 2 1 2 0 4 5 5 7 5 5 6 8 10 16 24 29 32 33 32 30 26 23 23 21 17 17 16 12 9 12 13 15 15 15 15 16 14 16
3 3 4 3 4 6 2 1 2 1 2 3 4 6 6 7 4 7 9 19 27 31 32 34 32 28 26 24 22 20 17 15 15 13 12 12 12 13 17 17 15 14 15 15
3 0 4 7 5 5 1 3 3 3 5 4 2 9 5 7 6 6 10 23 28 30 31 32 32 30 28 26 23 22 17 13 10 10 11 11 11 11 11 12 15 13 11 13
5 2 4 4 4 2 3 4 4 0 2 6 2 7 3 5 7 2 12 18 25 27 32 32 32 33 30 27 24 22 20 18 14 10 10 10 9 9 9 10 12 12 12 11
1 3 6 5 5 2 4 5 7 7 3 4 12 20 24 8 7 8 14 19 23 24 27 30 31 31 31 28 25 22 20 17 14 11 9 7 7 7 7 8 8 9 12 12
3 5 3 9 11 10 14 15 11 12 16 5 21 7 24 16 14 13 12 16 22 26 27 28 29 28 28 28 25 22 19 17 15 12 9 7 5 4 5 7 8 10 9 9
4 3 1 5 8 6 11 17 15 17 13 14 23 27 21 23 7 10 12 11 19 23 24 25 26 27 27 28 26 21 18 16 13 11 8 5 3 0 4 5 6 9 10 11
5 2 1 5 3 7 7 8 8 5 8 7 7 11 3 3 5 12 12 9 14 19 20 23 23 24 22 24 27 23 20 16 14 13 11 8 5 6 8 8 8 11 12 14
4 3 2 4 5 2 7 5 6 9 6 15 12 9 6 7 8 13 12 10 9 14 17 19 21 21 21 22 23 24 24 21 18 18 17 14 11 14 15 18 20 21 22 24
5 2 1 1 2 9 10 3 5 6 8 10 15 9 10 11 8 15 8 5 5 9 13 16 19 19 17 17 21 24 26 26 27 26 24 23 23 24 25 28 29 30 33 35
1 2 3 2 3 6 4 3 2 2 5 5 6 7 7 7 1 3 3 2 2 6 11 14 17 18 16 15 14 16 22 26 28 27 26 27 30 33 33 33 33 33 32 31
3 3 9 7 4 9 10 8 6 5 6 4 7 9 16 5 7 3 4 4 1 4 9 12 15 18 18 15 13 13 15 20 22 22 22 24 26 28 30 30 29 28 28 27
9 9 5 4 4 10 14 6 7 4 3 4 9 12 17 13 8 7 7 6 4 2 6 11 14 16 16 15 14 13 13 15 16 18 20 22 23 24 24 24 23 21 21 20
3 8 6 12 9 4 22 11 18 6 6 7 12 15 15 16 14 11 10 9 7 4 5 8 11 14 14 14 15 14 13 13 13 13 14 16 16 16 16 16 16 17 16 15
5 9 4 2 10 20 30 33 32 25 21 16 12 16 18 18 15 13 14 12 9 6 6 7 9 11 12 12 13 13 12 12 11 11 11 10 10 10 10 10 11 11 11 10
5 10 6 6 20 19 31 32 34 31 29 31 24 19 20 19 17 14 15 14 11 8 7 6 6 7 9 11 12 12 12 11 10 9 8 8 8 9 10 11 12 11 11 10
12 12 7 13 28 20 24 26 24 18 19 23 28 25 22 22 19 16 15 15 12 10 8 6 4 4 6 8 8 9 9 8 8 8 8 8 8 8 8 9 10 10 11 11
Wind_Direction
35 348 55 47 36 327 298 292 288 287 306 309 278 291 288 267 161 191 231 326 319 315 318 314 310 308 306 312 309 308 305 299 294 287 286 276 268 263 253 261 261 257 253 249
27 173 68 12 276 284 293 285 283 283 323 322 293 291 279 260 190 171 314 302 323 323 319 319 316 313 309 308 308 299 293 287 274 270 261 275 267 252 263 253 264 262 258 250
146 58 75 268 317 312 288 260 322 302 333 274 297 283 158 155 162 210 256 317 324 325 326 322 320 318 316 313 314 312 303 301 296 290 272 260 260 244 241 240 244 254 264 257
277 91 3 333 281 61 287 1 325 315 29 304 49 281 308 135 191 187 320 327 325 328 325 322 322 321 321 317 315 310 304 303 295 291 282 260 262 244 243 242 245 254 257 257
37 346 351 241 258 36 248 321 291 290 91 345 182 77 257 149 210 348 335 328 326 333 331 329 326 324 321 319 315 315 308 308 296 286 278 254 256 235 240 244 242 250 247 252
245 16 254 316 313 275 317 304 306 98 155 257 192 79 265 225 296 326 335 327 335 336 333 326 326 326 323 325 323 318 316 313 303 298 283 262 243 225 242 237 236 246 253 250
225 193 125 270 303 114 20 359 334 347 253 242 218 306 251 151 32 2 333 330 338 334 332 329 329 330 326 323 322 321 319 317 317 304 287 258 235 229 230 233 244 237 245 252
29 321 178 247 59 114 38 65 127 279 309 298 227 237 261 141 38 355 329 330 332 331 333 329 328 328 328 328 326 324 323 319 325 306 316 201 212 216 222 229 235 247 253 256
330 262 123 0 37 110 129 256 29 268 237 308 239 275 63 91 349 348 338 337 331 334 332 332 333 332 332 327 326 330 328 326 329 317 302 273 204 201 219 222 222 235 248 259
100 305 77 156 141 73 145 114 14 265 306 296 290 287 245 306 318 316 320 332 335 336 337 339 339 338 337 333 330 336 338 339 339 329 297 279 262 244 242 244 245 246 256 262
126 121 267 137 196 169 141 232 248 131 204 274 304 264 200 199 234 274 299 343 342 345 344 346 346 346 343 339 342 338 341 345 346 335 307 278 266 264 256 252 257 258 252 256
154 271 265 229 114 39 97 233 163 138 270 237 253 269 165 183 211 247 349 360 348 354 352 353 354 353 351 349 350 346 346 344 337 335 320 300 277 268 262 255 251 252 261 245
174 229 321 332 7 89 215 206 198 49 21 225 226 264 219 226 241 29 6 353 345 344 351 356 359 2 1 357 356 354 353 348 344 333 318 310 303 294 282 273 263 252 238 252
232 255 198 211 211 111 258 207 209 180 200 257 238 276 281 269 322 318 332 331 334 339 345 354 360 4 4 3 3 1 358 353 346 338 326 307 286 277 268 270 271 260 247 249
210 233 261 262 269 267 263 262 230 225 226 211 270 265 279 296 302 298 307 320 330 339 350 353 357 4 9 8 8 7 10 4 357 348 337 330 318 285 254 243 248 252 248 242
191 262 91 282 251 259 272 258 235 230 240 258 261 275 282 279 263 278 290 327 335 335 351 351 357 5 11 12 17 17 20 22 12 5 3 357 337 289 206 200 185 210 215 203
156 207 73 266 340 309 303 244 179 200 188 168 192 235 210 285 259 268 285 328 332 334 351 352 359 6 12 19 22 24 34 43 45 47 47 53 86 113 129 144 159 158 158 148
142 155 123 269 358 310 241 203 175 198 223 216 261 254 220 230 274 278 278 305 331 336 357 0 5 14 13 20 29 37 48 53 60 64 66 67 81 104 119 121 127 132 127 126
152 186 304 211 246 288 293 156 169 175 282 216 227 248 225 253 292 286 264 284 325 341 2 5 9 11 21 25 25 34 51 58 62 67 79 88 97 105 112 109 106 108 113 113
215 324 155 100 190 238 262 170 156 119 294 191 198 210 174 164 340 265 196 226 306 344 6 11 14 12 21 33 36 39 43 53 58 59 68 81 91 96 96 97 97 100 99 99
160 188 219 219 257 280 256 168 154 86 243 187 202 187 169 191 213 235 213 202 236 347 3 11 13 16 19 29 39 43 50 57 58 63 69 76 77 81 85 86 88 92 99 102
175 166 194 184 205 274 159 115 177 218 199 230 208 204 197 212 223 229 223 217 226 314 349 5 9 16 20 24 33 40 49 60 63 66 72 73 76 81 86 91 95 92 94 99
256 197 186 192 209 225 194 222 225 255 248 239 225 221 215 216 224 223 224 225 233 275 325 353 5 13 20 27 28 32 41 50 58 62 68 76 81 85 87 90 93 95 98 102
254 187 229 83 246 241 246 244 249 253 256 255 248 230 221 224 224 219 224 228 237 262 300 334 353 6 16 25 34 40 41 42 49 55 57 63 69 70 72 75 80 86 89 82
193 145 208 264 267 279 269 254 261 270 262 254 247 234 228 224 224 221 222 227 234 250 278 309 334 358 17 29 30 30 34 39 44 51 50 51 58 60 59 63 68 65 67 67
190 224 215 251 260 240 257 269 282 264 259 261 245 230 223 225 225 226 223 225 232 245 257 272 302 342 15 29 34 40 45 49 49 51 55 53 56 57 60 61 57 56 53 44